Location: Chateh
(58.6667°N, 118.6000°W)
Time: 11:26:53
(UTC+00:00)

PCSat - Pass Details

Date: 05 December 2023
Orbit: 784 x 791 km, 67.0° (Epoch: 01 March)

Event Time Altitude Azimuth Distance (km) Brightness Sun altitude
Exits shadow 12:28:03 37° 164° (SSE) 1,210 10.5 -28.9°
Maximum altitude 12:29:29 46° 124° (ESE) 1,058 10.4 -28.7°
Drops below altitude 10° 12:34:38 10° 53° (NE) 2,362 12.7 -28.1°
Sets 12:37:07 0° 47° (NE) 3,296 13.5 -27.7°
